Regional Weather Roundup
Issued by NWS

Home | Current Version | Previous Version | Text Only | Print | Product List | Glossary On
Versions: 1 2 3 4 5 6 7 8 9 10 11 12 13 14 15 16 17 18 19 20 21 22 23 24 25 26 27 28 29 30 31 32 33 34 35 36 37 38 39 40 41 42 43 44 45 46 47 48 49 50
000
ASUS43 KMKX 291700
RWRWI

WISCONSIN REGIONAL WEATHER ROUNDUP
NATIONAL WEATHER SERVICE MILWAUKEE/SULLIVAN WI
1200 PM CDT WED MAR 29 2017

NOTE: "FAIR" INDICATES FEW OR NO CLOUDS BELOW 12,000 FEET WITH NO
SIGNIFICANT WEATHER AND/OR OBSTRUCTIONS TO VISIBILITY.

WIZ001-002-006>008-014>016-023>028-291800-
NORTHWEST WISCONSIN

CITY           SKY/WX    TMP DP  RH WIND       PRES   REMARKS
SUPERIOR ARPT  CLOUDY    37  33  86 E14G20    30.34S WCI  28
ASHLAND        PTSUNNY   39  32  76 N7        30.33  WCI  34
HAYWARD        CLOUDY    49  27  42 E6        30.27F
SIREN          CLOUDY    45  31  57 CALM      30.27F
CUMBERLAND     CLOUDY    45  30  57 SE6       30.26F
RICE LAKE      CLOUDY    47  30  53 CALM      30.29F
CHETEK         CLOUDY    47  32  54 SE9       30.28S
LADYSMITH      PTSUNNY   49  31  48 E6        30.30F
EAU CLAIRE     NOT AVBL
MENOMONIE      CLOUDY    46  31  55 E7        30.28S
NEW RICHMOND   CLOUDY    48  30  50 SE6       30.27S
OSCEOLA        CLOUDY    49  31  50 SE7       30.29S
$$

WIZ003>005-009-010-017-018-291800-
NORTH CENTRAL WISCONSIN

CITY           SKY/WX    TMP DP  RH WIND       PRES   REMARKS
MANITOWISH WTR CLOUDY    44  27  51 SE5       30.30F
ARBOR VITAE    PTSUNNY   44  29  55 SE7       30.30S
WOODRUFF       PTSUNNY   44  29  55 SE7       30.30S
RHINELANDER    CLOUDY    48  29  47 SE8       30.30F
EAGLE RIVER    MOSUNNY   44  26  49 SE7       30.32S
LAND O LAKES   CLOUDY    44  27  50 E7        30.33F
PHILLIPS       CLOUDY    47  30  51 SE6       30.28F
TOMAHAWK       CLOUDY    46  28  49 E6        30.30F
MEDFORD        CLOUDY    41  29  63 E6        30.28F
MERRILL        CLOUDY    44  30  57 E7        30.31F
$$

WIZ029-030-035-036-043>047-291800-
CENTRAL WISCONSIN

CITY           SKY/WX    TMP DP  RH WIND       PRES   REMARKS
WAUSAU         CLOUDY    46  28  49 E9        30.28F
MOSINEE        PTSUNNY   45  30  57 E12       30.30F
MARSHFIELD     CLOUDY    44  30  57 SE9       30.27S
STEVENS POINT  CLOUDY    42  29  58 E13G18    30.30S
WAUPACA        CLOUDY    45  32  61 NE6       30.31F
WAUTOMA        CLOUDY    44  34  67 E9        30.30F
WISC RAPIDS    PTSUNNY   46  31  55 E10       30.30S
CAMP DOUGLAS   NOT AVBL
$$

WIZ011>013-019>022-031-037>040-048>050-291800-
NORTHEAST WISCONSIN

CITY           SKY/WX    TMP DP  RH WIND       PRES   REMARKS
ANTIGO         MOSUNNY   42  29  62 SE10      30.31F
SHAWANO        CLOUDY    42  33  69 E8        30.34F
OCONTO         CLOUDY    40  31  72 NE7       30.36F WCI  35
STURGEON BAY   CLOUDY    40  32  73 NE9       30.34F WCI  34
GREEN BAY      CLOUDY    39  35  86 NE13      30.33F WCI  31
MANITOWOC      CLOUDY    39  36  87 NE10      30.33F WCI  32
APPLETON       PTSUNNY   41  32  70 E10       30.29F
CLINTONVILLE   CLOUDY    43  30  61 E8        30.33F
OSHKOSH        CLOUDY    43  36  76 NE6       30.30F
$$

WIZ032>034-041-042-053>061-291800-
SOUTHWEST WISCONSIN

CITY           SKY/WX    TMP DP  RH WIND       PRES   REMARKS
LA CROSSE      CLOUDY    45  33  63 E8        30.25F
SPARTA         CLOUDY    43  35  73 E6        30.28F
VIROQUA        CLOUDY    40  34  78 NE9       30.23F WCI  35
BOSCOBEL       CLOUDY    46  36  68 E7        30.23F
PRAIRIE DU CHI CLOUDY    46  33  60 E8        30.22R
PLATTEVILLE    CLOUDY    45  37  72 E15       30.21R
$$

WIZ056-057-062-063-064-067-068-291800-
SOUTH CENTRAL WISCONSIN

CITY           SKY/WX    TMP DP  RH WIND       PRES   REMARKS
REEDSBURG      CLOUDY    40  36  85 E7        30.26F
BARABOO/DELLS  CLOUDY    40  35  81 E10       30.27F WCI  34
LONE ROCK      NOT AVBL
MINERAL POINT  CLOUDY    45  36  70 E13G22    30.21F
MADISON        CLOUDY    44  37  76 E9        30.26F
MIDDLETON      PTSUNNY   44  39  85 E7        30.27S
WATERTOWN      CLOUDY    45  37  71 E8        30.27R
MONROE         CLOUDY    43  34  70 E13G20    30.21F
JANESVILLE     CLOUDY    48  36  61 E13G18    30.24F
$$

WIZ051-052-058>065-066-070>072-291800-
SOUTHEAST WISCONSIN

CITY           SKY/WX    TMP DP  RH WIND       PRES   REMARKS
MILWAUKEE      CLOUDY    41  36  82 NE7       30.29F
WAUKESHA       MOSUNNY   43  34  70 E7        30.29S
MILWAUKEE/TIMM SUNNY     43  32  65 E5        30.29F
RACINE         CLOUDY    41  36  82 NE8       30.30F
KENOSHA        PTSUNNY   43  35  73 E12       30.28S
FOND DU LAC    CLOUDY    47  38  71 E6        30.29F
SHEBOYGAN      PTSUNNY   40  37  89 NE12      30.31F WCI  33
WEST BEND      PTSUNNY   45  41  87 E6        30.28F
JUNEAU         CLOUDY    44  37  76 NE7       30.29S
$$

LSZ147-162-291800-
LAKE SUPERIOR

STATION/POSITION TIME  TEMP    WIND        PRES    WAVE
                       AIR SEA DIR/SP/G            HT/PER
                 (UTC) (F)     (DEG/KT/KT) (MB)    (FT/S)
DEVILS ISLAND    1600   34      70/ 15/ 17 1028.9R
PORT WING        1630   35      30/ 15/ 17 1027.1F
SAXON HARBOR     1640   36     340/  3/  3 1026.8S
$$

LMZ867-665-643>646-291800-
LAKE MICHIGAN

STATION/POSITION TIME  TEMP    WIND        PRES    WAVE
                       AIR SEA DIR/SP/G            HT/PER
                 (UTC) (F)     (DEG/KT/KT) (MB)    (FT/S)
CHAMBERS ISLAND  1640   34      10/ 10/ 11 1028.1S
NORTHPORT PIER   1640   34      90/  6/  8 1028.4S
SISTER BAY       1551   44      40/  7/ 11   N/A
KEWAUNEE LAKESHO 1612   34      40/ 12/ 16 1027.4
SHEBOYGAN LAKESH 1600   37     360/  9/  9 1027.6R
PORT WASHINGTON  1640   40      40/  7/  9 1026.8F
MILWAUKEE LAKESH 1630   37      30/ 11/ 12   N/A
KENOSHA   LAKESH 1600   37      30/ 11/ 13 1025.7
$$

TC  - TEMPERATURE IN CELSIUS
VSB - VISIBILITY IN STATUTE MILES
WCI - WIND CHILL INDEX
HX  - HEAT INDEX




USA.gov is the U.S. government's official web portal to all federal, state and local government web resources and services.